Time,TemperatureF,DewpointF,PressureIn,WindDirection,WindDirectionDegrees,WindSpeedMPH,WindSpeedGustMPH,Humidity,HourlyPrecipIn,Conditions,Clouds,dailyrainin,SoftwareType,DateUTC
2013-08-09 00:00:00,69.5,66.0,29.93,WSW,257,0.0,0.0,88,0.00,,,0.00,weatherlink.com 1.10,2013-08-09 05:00:00,
2013-08-09 00:15:00,69.9,66.0,29.93,WSW,257,0.0,0.0,87,0.00,,,0.00,weatherlink.com 1.10,2013-08-09 05:15:00,
2013-08-09 00:30:00,70.1,66.0,29.93,WSW,257,0.0,0.0,86,0.00,,,0.00,weatherlink.com 1.10,2013-08-09 05:30:00,
2013-08-09 00:45:00,70.2,66.0,29.93,WSW,257,0.0,0.0,85,0.00,,,0.00,weatherlink.com 1.10,2013-08-09 05:45:00,
2013-08-09 01:00:00,69.8,66.0,29.93,WSW,257,0.0,0.0,86,0.00,,,0.00,weatherlink.com 1.10,2013-08-09 06:00:00,
2013-08-09 01:15:00,69.9,66.0,29.93,WSW,257,0.0,0.0,86,0.00,,,0.00,weatherlink.com 1.10,2013-08-09 06:15:00,
2013-08-09 01:30:00,69.7,65.0,29.92,WSW,257,0.0,0.0,86,0.00,,,0.00,weatherlink.com 1.10,2013-08-09 06:30:00,
2013-08-09 01:45:00,70.3,66.0,29.93,WNW,284,0.0,0.0,85,0.00,,,0.00,weatherlink.com 1.10,2013-08-09 06:45:00,
2013-08-09 02:00:00,70.1,65.0,29.93,WNW,285,0.0,0.0,84,0.00,,,0.00,weatherlink.com 1.10,2013-08-09 07:00:00,
2013-08-09 02:15:00,69.7,65.0,29.93,WNW,284,0.0,0.0,85,0.00,,,0.00,weatherlink.com 1.10,2013-08-09 07:15:00,
2013-08-09 02:30:00,69.6,65.0,29.93,WNW,284,0.0,0.0,85,0.00,,,0.00,weatherlink.com 1.10,2013-08-09 07:30:00,
2013-08-09 02:45:00,69.4,65.0,29.93,WNW,284,0.0,0.0,86,0.00,,,0.00,weatherlink.com 1.10,2013-08-09 07:45:00,
2013-08-09 03:00:00,69.2,65.0,29.92,WNW,284,0.0,0.0,87,0.00,,,0.00,weatherlink.com 1.10,2013-08-09 08:00:00,
2013-08-09 03:15:00,69.4,65.0,29.92,WNW,284,0.0,0.0,86,0.00,,,0.00,weatherlink.com 1.10,2013-08-09 08:15:00,
2013-08-09 03:30:00,69.3,65.0,29.92,WNW,284,0.0,0.0,85,0.00,,,0.00,weatherlink.com 1.10,2013-08-09 08:30:00,
2013-08-09 03:45:00,69.2,65.0,29.92,WNW,284,0.0,0.0,86,0.00,,,0.00,weatherlink.com 1.10,2013-08-09 08:45:00,
2013-08-09 04:00:00,68.9,65.0,29.93,WNW,284,0.0,0.0,87,0.00,,,0.00,weatherlink.com 1.10,2013-08-09 09:00:00,
2013-08-09 04:15:00,69.0,65.0,29.93,WNW,284,0.0,0.0,87,0.00,,,0.00,weatherlink.com 1.10,2013-08-09 09:15:00,
2013-08-09 04:30:00,69.0,65.0,29.93,WNW,284,0.0,0.0,87,0.00,,,0.00,weatherlink.com 1.10,2013-08-09 09:30:00,
2013-08-09 04:45:00,69.0,65.0,29.92,West,266,0.0,0.0,87,0.00,,,0.00,weatherlink.com 1.10,2013-08-09 09:45:00,
2013-08-09 05:00:00,69.1,65.0,29.92,West,259,0.0,0.0,86,0.00,,,0.00,weatherlink.com 1.10,2013-08-09 10:00:00,
2013-08-09 05:15:00,69.4,65.0,29.93,West,276,0.0,0.0,85,0.00,,,0.00,weatherlink.com 1.10,2013-08-09 10:15:00,
2013-08-09 05:30:00,69.3,65.0,29.93,West,275,0.0,0.0,86,0.00,,,0.00,weatherlink.com 1.10,2013-08-09 10:30:00,
2013-08-09 05:45:00,68.9,65.0,29.93,West,276,0.0,0.0,87,0.00,,,0.00,weatherlink.com 1.10,2013-08-09 10:45:00,
2013-08-09 06:00:00,68.7,65.0,29.93,West,276,0.0,0.0,87,0.00,,,0.00,weatherlink.com 1.10,2013-08-09 11:00:00,
2013-08-09 06:15:00,68.7,65.0,29.93,West,276,0.0,0.0,87,0.00,,,0.00,weatherlink.com 1.10,2013-08-09 11:15:00,
2013-08-09 06:30:00,68.4,65.0,29.93,West,276,0.0,0.0,88,0.00,,,0.00,weatherlink.com 1.10,2013-08-09 11:30:00,
2013-08-09 06:45:00,68.3,65.0,29.93,West,275,0.0,0.0,88,0.00,,,0.00,weatherlink.com 1.10,2013-08-09 11:45:00,
2013-08-09 07:00:00,68.2,65.0,29.92,WNW,287,0.0,0.0,88,0.00,,,0.00,weatherlink.com 1.10,2013-08-09 12:00:00,
2013-08-09 07:15:00,68.6,65.0,29.92,WNW,288,0.0,0.0,88,0.00,,,0.00,weatherlink.com 1.10,2013-08-09 12:15:00,
2013-08-09 07:30:00,68.7,65.0,29.93,WNW,288,0.0,0.0,88,0.00,,,0.00,weatherlink.com 1.10,2013-08-09 12:30:00,
2013-08-09 07:45:00,69.0,65.0,29.93,WNW,288,0.0,0.0,88,0.00,,,0.00,weatherlink.com 1.10,2013-08-09 12:45:00,
2013-08-09 08:00:00,69.1,66.0,29.93,NNW,340,0.0,0.0,88,0.00,,,0.00,weatherlink.com 1.10,2013-08-09 13:00:00,
2013-08-09 08:15:00,69.1,66.0,29.94,NNW,340,0.0,0.0,88,0.00,,,0.00,weatherlink.com 1.10,2013-08-09 13:15:00,
2013-08-09 08:30:00,69.2,66.0,29.94,NNW,339,0.0,0.0,88,0.00,,,0.00,weatherlink.com 1.10,2013-08-09 13:30:00,
2013-08-09 08:45:00,69.2,65.0,29.95,NNW,339,0.0,0.0,87,0.00,,,0.00,weatherlink.com 1.10,2013-08-09 13:45:00,
2013-08-09 09:00:00,69.2,66.0,29.96,NNW,339,0.0,0.0,88,0.00,,,0.00,weatherlink.com 1.10,2013-08-09 14:00:00,
2013-08-09 09:16:00,69.2,66.0,29.97,NNW,339,0.0,0.0,88,0.00,,,0.00,weatherlink.com 1.10,2013-08-09 14:16:00,
2013-08-09 09:31:00,69.3,66.0,29.97,NNW,339,0.0,0.0,89,0.00,,,0.00,weatherlink.com 1.10,2013-08-09 14:31:00,
2013-08-09 09:46:00,69.7,66.0,29.98,NNW,339,0.0,0.0,89,0.00,,,0.00,weatherlink.com 1.10,2013-08-09 14:46:00,
2013-08-09 10:01:00,70.3,67.0,29.98,NNW,338,0.0,0.0,88,0.00,,,0.00,weatherlink.com 1.10,2013-08-09 15:01:00,
2013-08-09 10:16:00,70.9,66.0,29.97,NNW,335,0.0,0.0,85,0.00,,,0.00,weatherlink.com 1.10,2013-08-09 15:16:00,
2013-08-09 10:31:00,71.5,67.0,29.98,NNW,335,0.0,0.0,85,0.00,,,0.00,weatherlink.com 1.10,2013-08-09 15:31:00,
2013-08-09 10:46:00,72.3,67.0,29.98,NW,310,2.0,2.0,83,0.00,,,0.00,weatherlink.com 1.10,2013-08-09 15:46:00,
2013-08-09 11:01:00,72.3,67.0,29.98,NW,305,0.0,1.0,83,0.00,,,0.00,weatherlink.com 1.10,2013-08-09 16:01:00,
2013-08-09 11:16:00,72.3,67.0,29.97,WNW,295,0.0,1.0,84,0.00,,,0.00,weatherlink.com 1.10,2013-08-09 16:16:00,
2013-08-09 11:31:00,72.7,67.0,29.98,WNW,300,0.0,1.0,83,0.00,,,0.00,weatherlink.com 1.10,2013-08-09 16:31:00,
2013-08-09 11:46:00,73.2,68.0,29.98,WNW,297,0.0,0.0,84,0.00,,,0.00,weatherlink.com 1.10,2013-08-09 16:46:00,
2013-08-09 12:01:00,73.9,69.0,29.98,West,269,0.0,0.0,84,0.00,,,0.00,weatherlink.com 1.10,2013-08-09 17:01:00,
2013-08-09 12:16:00,74.1,68.0,29.99,West,269,0.0,0.0,82,0.00,,,0.00,weatherlink.com 1.10,2013-08-09 17:16:00,
2013-08-09 12:31:00,74.4,69.0,29.98,NNW,332,0.0,1.0,82,0.00,,,0.00,weatherlink.com 1.10,2013-08-09 17:31:00,
2013-08-09 12:46:00,74.8,68.0,29.99,NNW,333,0.0,1.0,80,0.00,,,0.00,weatherlink.com 1.10,2013-08-09 17:46:00,
2013-08-09 13:01:00,75.0,69.0,29.98,ESE,108,0.0,0.0,81,0.00,,,0.00,weatherlink.com 1.10,2013-08-09 18:01:00,
2013-08-09 13:16:00,75.3,70.0,29.98,ESE,106,0.0,0.0,83,0.00,,,0.00,weatherlink.com 1.10,2013-08-09 18:16:00,
2013-08-09 13:31:00,75.3,70.0,29.98,North,354,0.0,1.0,83,0.00,,,0.00,weatherlink.com 1.10,2013-08-09 18:31:00,
2013-08-09 13:46:00,75.3,69.0,29.98,NW,305,0.0,0.0,81,0.00,,,0.00,weatherlink.com 1.10,2013-08-09 18:46:00,
2013-08-09 14:01:00,74.9,68.0,29.98,WNW,288,0.0,3.0,80,0.00,,,0.00,weatherlink.com 1.10,2013-08-09 19:01:00,
2013-08-09 14:16:00,74.9,69.0,29.98,SE,129,1.0,1.0,82,0.00,,,0.00,weatherlink.com 1.10,2013-08-09 19:16:00,
2013-08-09 14:31:00,74.9,69.0,29.99,SSE,155,0.0,0.0,81,0.00,,,0.00,weatherlink.com 1.10,2013-08-09 19:31:00,
2013-08-09 14:46:00,74.3,70.0,29.99,South,176,0.0,0.0,85,0.01,,,0.01,weatherlink.com 1.10,2013-08-09 19:46:00,
2013-08-09 15:01:00,73.7,69.0,30.00,South,176,0.0,0.0,86,0.02,,,0.02,weatherlink.com 1.10,2013-08-09 20:01:00,
2013-08-09 15:16:00,73.2,70.0,29.99,South,176,0.0,0.0,89,0.03,,,0.03,weatherlink.com 1.10,2013-08-09 20:16:00,
2013-08-09 15:31:00,73.1,70.0,29.99,SW,233,0.0,0.0,90,0.04,,,0.04,weatherlink.com 1.10,2013-08-09 20:31:00,
2013-08-09 15:46:00,72.8,69.0,29.99,SW,233,0.0,0.0,88,0.03,,,0.04,weatherlink.com 1.10,2013-08-09 20:46:00,
2013-08-09 16:01:00,71.6,67.0,29.99,SW,233,0.0,0.0,86,0.02,,,0.04,weatherlink.com 1.10,2013-08-09 21:01:00,
2013-08-09 16:16:00,71.2,67.0,29.99,SW,234,0.0,0.0,86,0.01,,,0.04,weatherlink.com 1.10,2013-08-09 21:16:00,
2013-08-09 16:31:00,72.0,67.0,29.99,SW,233,0.0,0.0,85,0.00,,,0.04,weatherlink.com 1.10,2013-08-09 21:31:00,
2013-08-09 16:46:00,73.0,68.0,29.99,SW,231,0.0,2.0,83,0.00,,,0.04,weatherlink.com 1.10,2013-08-09 21:46:00,
2013-08-09 17:01:00,73.4,68.0,29.99,SW,225,0.0,1.0,83,0.00,,,0.04,weatherlink.com 1.10,2013-08-09 22:01:00,
2013-08-09 17:16:00,73.7,68.0,29.99,SW,224,0.0,0.0,83,0.00,,,0.04,weatherlink.com 1.10,2013-08-09 22:16:00,
2013-08-09 17:31:00,73.7,68.0,29.99,SW,225,0.0,0.0,82,0.00,,,0.04,weatherlink.com 1.10,2013-08-09 22:31:00,
2013-08-09 17:47:00,73.5,68.0,29.99,SW,225,0.0,0.0,84,0.00,,,0.04,weatherlink.com 1.10,2013-08-09 22:47:00,
2013-08-09 18:01:00,73.8,68.0,29.98,SW,225,0.0,0.0,83,0.00,,,0.04,weatherlink.com 1.10,2013-08-09 23:01:00,
2013-08-09 18:16:00,73.9,69.0,29.98,SW,225,0.0,0.0,83,0.00,,,0.04,weatherlink.com 1.10,2013-08-09 23:16:00,
2013-08-09 18:31:00,74.0,69.0,29.97,SW,225,0.0,0.0,83,0.00,,,0.04,weatherlink.com 1.10,2013-08-09 23:31:00,
2013-08-09 18:46:00,73.8,68.0,29.97,SW,225,0.0,0.0,82,0.00,,,0.04,weatherlink.com 1.10,2013-08-09 23:46:00,
2013-08-09 19:01:00,73.2,68.0,29.98,SW,225,0.0,0.0,83,0.00,,,0.04,weatherlink.com 1.10,2013-08-10 00:01:00,
2013-08-09 19:16:00,72.9,68.0,29.98,SW,225,0.0,0.0,84,0.00,,,0.04,weatherlink.com 1.10,2013-08-10 00:16:00,
2013-08-09 19:31:00,72.6,68.0,29.98,SW,224,0.0,0.0,86,0.00,,,0.04,weatherlink.com 1.10,2013-08-10 00:31:00,
2013-08-09 19:46:00,72.0,68.0,29.98,SW,224,0.0,0.0,88,0.00,,,0.04,weatherlink.com 1.10,2013-08-10 00:46:00,
2013-08-09 20:01:00,71.4,68.0,29.98,SW,225,0.0,0.0,90,0.00,,,0.04,weatherlink.com 1.10,2013-08-10 01:01:00,
2013-08-09 20:17:00,70.9,68.0,29.98,SW,225,0.0,0.0,90,0.00,,,0.04,weatherlink.com 1.10,2013-08-10 01:17:00,
2013-08-09 20:32:00,70.7,68.0,29.98,SW,225,0.0,0.0,91,0.00,,,0.04,weatherlink.com 1.10,2013-08-10 01:32:00,
2013-08-09 20:48:00,70.1,67.0,30.00,SW,225,0.0,0.0,91,0.00,,,0.04,weatherlink.com 1.10,2013-08-10 01:48:00,
2013-08-09 21:02:00,69.6,67.0,30.01,SW,224,0.0,0.0,92,0.00,,,0.04,weatherlink.com 1.10,2013-08-10 02:02:00,
2013-08-09 21:17:00,68.9,67.0,30.01,SW,225,0.0,0.0,92,0.00,,,0.04,weatherlink.com 1.10,2013-08-10 02:17:00,
2013-08-09 21:32:00,68.3,66.0,30.01,SW,224,0.0,0.0,93,0.00,,,0.04,weatherlink.com 1.10,2013-08-10 02:32:00,
2013-08-09 21:47:00,68.0,66.0,30.02,SW,225,0.0,0.0,94,0.00,,,0.04,weatherlink.com 1.10,2013-08-10 02:47:00,
2013-08-09 22:02:00,67.6,66.0,30.02,SW,224,0.0,0.0,95,0.00,,,0.04,weatherlink.com 1.10,2013-08-10 03:02:00,
2013-08-09 22:17:00,67.3,66.0,30.02,SW,225,0.0,0.0,95,0.00,,,0.04,weatherlink.com 1.10,2013-08-10 03:17:00,
2013-08-09 22:32:00,67.0,66.0,30.03,SW,224,0.0,0.0,95,0.00,,,0.04,weatherlink.com 1.10,2013-08-10 03:32:00,
2013-08-09 22:47:00,66.9,66.0,30.03,SW,225,0.0,0.0,95,0.00,,,0.04,weatherlink.com 1.10,2013-08-10 03:47:00,
2013-08-09 23:02:00,66.7,65.0,30.03,SW,224,0.0,0.0,95,0.00,,,0.04,weatherlink.com 1.10,2013-08-10 04:02:00,
2013-08-09 23:32:00,66.4,65.0,30.04,SW,225,0.0,0.0,96,0.00,,,0.04,weatherlink.com 1.10,2013-08-10 04:32:00,
2013-08-09 23:47:00,66.2,65.0,30.04,SW,225,0.0,0.0,96,0.00,,,0.04,weatherlink.com 1.10,2013-08-10 04:47:00,